Hovedside
METAR-TAF:

METAR-TAF

Lufthavner :

Båtsfjord, Norge

Båtsfjord lufthavn

breddegrad: 70-38N, lengdegrad: 029-44E, høyde over havet: 10 m

Gjeldene værobservasjon

Denne rapporten ble laget for 39 minutter siden, klokken 07:50 UTC
Vind 10 kt fra Sør
Temperatur -11°C
Luftfuktighet 85%
Trykk 1015 hPa
Sikt: 5000 m
lette snøbyger

METAR: ENBS 220750Z 18010KT 5000 -SHSN VV012 M11/M13 Q1015

Tid: 09:29 (08:29 UTC)


TAF: fraværende

Værobservasjoner og værvarsel for over 4000 flyplasser (METAR- og TAF-rapporter).

Tilgjengelige stasjoner er representert av de røde og gule prikkene på kartet.

Hold musepekeren over prikken for å se navnet på stasjonen.

Klikk så for å se værobservasjoner og -varsler.

For å forandre kartet kan du klikke på den grønne knappen med svart kryss for å zoome inn, på den grønne knappen med strek for å zoome ut, eller på de grønne pilene for å se tilstøtende kart.


METAR-TAF: